South Lake Tahoe, CA

9:30 AM PST on December 14, 2017 (GMT -0800)
Lake Tahoe

Weather History for KTVL - August, 2013

Change the Weather History Date:

Saturday, August 3, 2013

  Actual Average Record
Temperature  
Mean Temperature 59 °F 62 °F  
Max Temperature 79 °F 82 °F 89 °F (1993)
Min Temperature 39 °F 42 °F 31 °F (1989)
Degree Days  
Heating Degree Days 6 4  
Month to date heating degree days 23 12  
Since 1 June heating degree days 254 460  
Since 1 July heating degree days 60 150  
Cooling Degree Days 0 1  
Month to date cooling degree days 0 3  
Year to date cooling degree days 89 22  
Since 1 June cooling degree days 89 22  
Growing Degree Days 8 (Base 50)    
Moisture  
Dew Point 34 °F    
Average Humidity 48    
Maximum Humidity 76    
Minimum Humidity 19    
Precipitation  
Precipitation 0.00 in - 0.05 in (1961)
Month to date precipitation 0.00  
Year to date precipitation 5.93  
Sea Level Pressure  
Sea Level Pressure 30.02 in    
Wind  
Wind Speed 4 mph (South)    
Max Wind Speed 15 mph    
Max Gust Speed 20 mph    
Visibility 10 miles    
Events      
T = Trace of Precipitation, MM = Missing Value Source: NWS Daily Summary

Daily Weather History Graph

Daily Weather History Graph

Search for Another Location

Airport or City:

Trip Planner

Search our weather history database for the weather conditions in past years. The results will help you decide how hot, cold, wet, or windy it might be!

Date:

Astronomy

Aug. 03, 2013 Rise Set
Actual Time 6:03 AM PDT 8:08 PM PDT
Civil Twilight 5:33 AM PDT 8:38 PM PDT
Nautical Twilight 4:57 AM PDT 9:13 PM PDT
Astronomical Twilight 4:18 AM PDT 9:52 PM PDT
Moon 3:16 AM PDT (8/3) 5:54 PM PDT (8/3)
Length of Visible Light 15h 04m
Length of Day
14h 05m
Waning Crescent, 9% of the Moon is Illuminated
Aug 3
Waning Crescent
Aug 6
New
Aug 14
First Quarter
Aug 20
Full
Aug 28
Last Quarter

Hourly Weather History & Observations

Time (PDT) Temp. Windchill Dew Point Humidity Pressure Visibility Wind Dir Wind Speed Gust Speed Precip Events Conditions
12:53 AM 48.0 °F - 32.0 °F 54% 30.03 in 10.0 mi Calm Calm - N/A   Clear
1:53 AM 46.0 °F 44.8 °F 32.0 °F 58% 30.02 in 10.0 mi South 3.5 mph - N/A   Clear
2:53 AM 44.1 °F - 30.9 °F 60% 30.03 in 10.0 mi Calm Calm - N/A   Clear
3:53 AM 42.1 °F 40.2 °F 32.0 °F 67% 30.03 in 10.0 mi South 3.5 mph - N/A   Clear
4:53 AM 39.9 °F 37.8 °F 32.0 °F 73% 30.03 in 10.0 mi SSW 3.5 mph - N/A   Clear
5:53 AM 39.9 °F 37.8 °F 30.9 °F 70% 30.04 in 10.0 mi South 3.5 mph - N/A   Clear
6:53 AM 39.9 °F 37.8 °F 32.0 °F 73% 30.06 in 10.0 mi SSW 3.5 mph - N/A   Clear
7:53 AM 51.1 °F - 35.1 °F 54% 30.05 in 10.0 mi South 3.5 mph - N/A   Clear
8:53 AM 61.0 °F - 37.9 °F 42% 30.03 in 10.0 mi Calm Calm - N/A   Clear
9:53 AM 69.1 °F - 34.0 °F 27% 30.01 in 10.0 mi NNE 4.6 mph - N/A   Clear
10:53 AM 71.1 °F - 36.0 °F 28% 30.02 in 10.0 mi Variable 3.5 mph - N/A   Clear
11:53 AM 73.0 °F - 37.0 °F 27% 30.01 in 10.0 mi Variable 6.9 mph - N/A   Clear
12:53 PM 75.0 °F - 34.0 °F 22% 30.00 in 10.0 mi NE 6.9 mph 16.1 mph N/A   Clear
1:53 PM 75.9 °F - 32.0 °F 20% 30.01 in 10.0 mi North 8.1 mph - N/A   Clear
2:53 PM 77.0 °F - 34.0 °F 21% 30.00 in 10.0 mi NNE 10.4 mph 19.6 mph N/A   Clear
3:53 PM 77.0 °F - 32.0 °F 19% 30.01 in 10.0 mi South 11.5 mph 17.3 mph N/A   Clear
4:53 PM 78.1 °F - 33.1 °F 19% 30.00 in 10.0 mi South 11.5 mph 16.1 mph N/A   Clear
5:53 PM 75.9 °F - 34.0 °F 22% 30.01 in 10.0 mi SSW 8.1 mph - N/A   Clear
6:53 PM 73.0 °F - 35.1 °F 25% 30.01 in 10.0 mi SSW 8.1 mph - N/A   Clear
7:53 PM 66.9 °F - 37.0 °F 33% 30.02 in 10.0 mi South 3.5 mph - N/A   Clear
8:53 PM 64.9 °F - 35.1 °F 33% 30.01 in 10.0 mi South 8.1 mph - N/A   Clear
9:53 PM 57.9 °F - 36.0 °F 44% 30.03 in 10.0 mi Calm Calm - N/A   Clear
10:53 PM 55.9 °F - 36.0 °F 47% 30.03 in 10.0 mi Calm Calm - N/A   Clear
11:53 PM 53.1 °F - 36.0 °F 52% 30.04 in 10.0 mi Calm Calm - N/A   Clear